sat.trackr.live / text

‹ back to catalog

STARLINK-31243

NORAD 58894 · 2024-020U

PAYLOAD ACTIVE UNKNOWN

§ Identity

Operator
Country
US
Launch date
2024-01-29
Launch site
AFWTR
Launch vehicle
Mass (kg)
RCS (m²)

Purposes: comms

External: N2YO · Heavens-Above · Gunter

§ Orbital elements

Epoch: 2026-05-24T20:37:41.467008Z

Period
94.01 min
Inclination
53.1611°
Eccentricity
0.0001137
Mean motion
15.31703643 rev/d
Perigee alt
470.0 km
Apogee alt
471.5 km
Semi-major
6,848.9 km
B*
3.9152e-5
RAAN
328.5755°
Arg perigee
82.6098°
Mean anomaly
277.5032°
Rev number
12,973

§ Raw data

STARLINK-312431 58894U 24020U   26144.85950772  .00000850  00000+0  39152-4 0  99982 58894  53.1611 328.5755 0001137  82.6098 277.5032 15.31703643129734

JSON: /api/v1/satellites/58894 · /tle

For live sub-satellite position, see the globe view (requires WebGL).

§ Visibility from observer

Set your observer location to see the next 7 days of passes ≥ 10°. The values pass through the URL so the page stays shareable.

No JS? Fill the form by hand. The geolocation button needs JavaScript.